Probability
0 0 0 0 0 0 0 1 0 0 0 0 0 2 7 11 14 18 20 21 20 17 16 18 23 28 30 28 22 20 21 21 18 15 12 11 10 9 6 4 4 5 4 4
0 0 0 0 0 0 0 1 0 0 0 0 1 3 8 12 16 19 21 21 20 21 21 21 25 31 35 33 28 25 24 23 21 18 15 12 10 9 6 4 3 3 3 4
0 0 0 0 0 0 0 0 0 0 0 0 1 4 8 13 17 18 18 18 20 24 26 26 28 34 39 40 37 33 29 26 23 21 18 14 12 10 7 4 2 2 2 3
0 0 0 0 0 0 0 0 0 0 0 0 1 3 6 10 14 16 15 16 20 26 29 30 31 37 41 42 40 37 33 28 25 23 20 17 14 12 9 6 4 3 3 3
0 0 0 0 0 0 0 0 0 0 0 0 1 1 3 6 10 15 16 17 20 26 31 32 33 37 41 40 39 37 34 30 27 25 22 19 17 14 11 9 7 5 3 3
0 0 0 0 0 0 0 0 0 0 0 0 0 0 1 4 10 17 21 20 20 23 29 32 33 35 39 39 39 37 34 31 29 27 24 21 19 17 15 12 8 6 3 2
0 0 0 0 0 0 0 0 0 0 0 0 0 0 1 5 12 20 23 21 19 22 27 30 31 33 37 40 41 39 35 32 30 28 25 21 19 18 16 13 9 6 4 2
0 0 0 0 0 0 0 0 0 0 0 0 1 1 3 7 15 21 23 21 20 21 23 26 28 28 32 38 40 38 34 31 28 25 22 20 19 18 17 13 9 7 5 5
0 0 0 0 0 0 0 0 0 0 0 0 1 2 4 9 16 19 20 21 20 19 20 22 23 22 23 28 33 33 31 28 24 22 20 19 19 21 21 16 12 8 7 6
0 0 0 0 0 0 0 0 0 0 0 0 1 2 4 8 13 16 16 17 18 18 19 20 18 17 16 17 21 25 27 25 23 21 20 20 20 22 23 19 13 9 6 6
0 0 0 0 0 0 0 0 0 0 0 0 0 1 3 6 10 13 12 12 14 16 17 18 16 15 14 12 14 20 23 24 23 22 21 21 20 20 21 19 14 10 7 6
0 0 0 0 0 0 0 0 0 0 0 0 1 3 4 6 9 11 10 9 10 12 14 16 17 16 14 12 11 15 21 24 24 23 22 21 21 20 18 17 15 12 10 9
0 0 0 0 0 0 0 0 0 0 0 1 3 5 6 7 8 9 9 8 9 11 13 15 16 15 14 12 11 13 19 23 24 25 24 22 22 21 19 17 16 14 12 11
0 0 0 0 0 0 0 0 0 0 0 1 3 5 7 9 9 9 9 9 11 13 14 13 13 13 13 12 12 14 18 22 23 25 25 23 22 21 18 16 15 15 13 11
0 0 1 1 0 1 1 0 1 1 1 1 3 5 8 10 11 11 10 11 12 13 12 11 10 11 11 11 13 16 20 23 23 23 24 23 22 20 17 15 13 14 14 12
0 0 1 2 2 2 2 2 2 3 3 3 6 8 9 10 12 11 11 13 13 12 11 9 9 9 9 10 13 16 20 23 24 23 22 22 21 20 18 14 12 13 15 15
0 0 1 2 2 2 3 3 3 5 6 7 9 9 9 9 10 10 11 12 13 13 11 9 8 8 8 10 12 16 19 21 23 23 21 20 19 19 18 16 13 14 15 15
0 0 0 1 1 1 1 2 3 6 9 10 10 8 6 6 7 8 9 10 11 11 10 7 6 6 7 8 11 15 18 19 20 21 20 19 18 17 18 18 16 15 14 14
0 0 0 0 0 0 0 0 2 6 9 11 9 6 3 3 4 5 7 9 8 7 6 4 4 4 5 6 8 12 15 16 17 18 18 17 17 17 17 18 18 17 15 14
0 0 0 0 0 0 0 0 1 4 6 6 5 2 1 2 3 4 5 7 6 4 2 2 2 2 3 4 6 9 12 14 14 15 15 16 17 17 18 18 18 17 15 14
0 0 0 0 0 0 0 0 1 1 1 1 1 0 1 2 3 4 5 4 3 2 1 1 1 1 1 3 7 9 10 10 12 12 13 15 16 17 18 18 17 16 13 11
0 0 0 0 0 0 0 0 1 0 0 0 0 0 1 3 4 5 6 5 3 2 2 1 1 1 1 3 6 9 8 8 9 10 11 14 15 15 16 16 15 14 11 10
0 0 0 0 0 0 0 1 2 1 1 1 1 1 2 3 4 6 6 5 5 5 5 4 3 2 3 3 5 7 7 6 8 9 11 12 13 12 12 13 13 12 11 10
0 0 0 0 0 0 1 2 2 2 3 4 4 4 4 3 4 5 5 4 4 4 5 4 4 3 3 3 4 5 5 6 7 9 10 11 11 11 10 11 11 11 9 9
0 0 0 0 0 0 1 2 1 2 3 4 5 6 5 4 3 3 3 2 1 1 2 3 3 2 2 2 2 3 4 5 6 8 9 9 10 11 10 9 9 8 7 7
0 0 0 0 0 0 1 1 1 2 3 4 5 6 6 4 3 3 2 1 0 0 0 1 1 1 1 1 1 1 3 5 5 7 8 8 10 11 11 9 6 5 6 6
Wind_Speed
1 2 5 8 8 8 6 5 8 10 8 2 4 4 5 4 5 5 6 7 8 8 7 7 8 10 9 9 8 8 8 6 5 4 4 4 3 2 2 2 3 3 3 3
2 6 11 8 6 4 5 5 8 9 6 2 3 4 3 4 6 7 8 8 9 7 6 6 7 9 10 10 9 8 8 7 6 4 3 3 3 2 2 1 2 2 3 3
8 9 6 5 6 6 7 6 7 6 5 4 1 2 2 2 2 3 4 7 7 10 10 9 8 8 9 9 9 9 8 8 6 5 4 4 3 2 2 1 1 1 3 3
7 8 6 5 7 7 9 9 6 4 1 4 1 3 5 3 1 3 4 5 7 9 10 9 9 9 9 9 8 8 8 7 6 6 6 6 5 3 2 2 2 1 2 3
6 5 5 7 9 6 8 7 4 3 2 2 2 2 5 1 2 4 4 6 7 7 9 10 11 11 10 9 9 8 7 6 6 6 7 7 5 3 2 2 2 1 1 2
7 5 4 6 7 5 3 2 4 3 3 2 5 3 5 4 6 6 3 4 6 6 7 8 8 9 8 8 7 7 7 6 5 6 6 7 6 5 5 4 3 2 1 1
6 6 4 2 3 4 2 4 3 5 3 6 3 2 6 6 5 7 7 7 6 7 7 7 7 8 9 9 8 7 8 6 6 6 5 6 6 7 6 5 4 3 2 1
2 7 5 2 3 4 3 7 7 5 5 5 2 2 5 4 2 6 8 9 8 6 5 7 7 7 8 9 9 8 8 7 6 6 5 5 5 4 4 4 4 4 3 3
3 6 5 4 3 3 2 3 7 6 2 2 3 3 3 2 3 4 6 6 6 5 5 6 6 5 5 8 9 9 9 7 6 6 5 6 5 4 4 4 4 3 3 3
4 4 6 5 3 3 4 3 3 4 3 4 4 4 4 3 3 3 4 5 4 4 5 4 4 4 4 5 7 7 7 7 6 6 6 5 5 5 4 4 4 4 3 3
2 2 5 3 0 2 3 2 2 2 4 5 3 5 4 5 6 6 5 5 5 5 5 4 3 4 4 3 5 6 6 5 5 5 5 5 5 5 5 4 4 4 4 3
1 4 3 5 4 2 2 2 4 3 3 3 3 5 2 2 3 5 5 4 4 4 4 5 5 4 4 3 4 5 6 6 6 6 5 4 4 5 5 5 4 4 4 4
2 5 2 7 7 5 3 1 1 3 3 2 3 5 2 2 2 2 4 4 4 4 3 3 3 3 4 3 3 4 5 6 5 5 5 4 4 4 5 5 4 4 4 4
4 4 5 5 5 3 4 5 2 3 2 3 4 4 2 1 1 1 2 3 3 3 3 3 2 2 2 3 3 3 4 5 5 5 5 5 5 5 5 4 4 4 4 4
5 2 1 3 4 2 4 5 3 0 4 5 4 4 4 3 2 3 3 3 3 2 2 2 2 1 1 2 2 3 3 4 5 5 5 5 4 4 4 4 4 4 4 4
3 2 1 3 2 3 5 5 4 2 1 2 2 1 2 1 2 3 4 4 3 3 2 3 2 0 1 2 3 3 3 4 5 5 5 5 4 4 4 4 4 4 4 3
1 2 1 3 4 3 3 4 2 1 2 2 3 3 1 1 2 3 3 3 4 4 2 2 1 1 2 2 3 4 4 3 4 5 5 5 5 5 5 4 4 4 4 3
4 3 2 0 2 2 4 2 2 1 3 2 2 2 2 3 2 2 2 3 2 2 2 1 1 1 1 1 1 2 3 3 3 3 4 4 5 5 5 4 4 4 4 4
4 5 3 2 1 3 3 4 4 2 3 4 2 3 3 4 3 2 1 2 3 2 1 1 1 0 1 1 1 1 2 2 2 2 3 4 4 5 5 5 5 4 3 3
4 4 4 2 2 3 4 6 5 1 1 4 2 1 1 2 2 2 1 1 1 1 1 1 1 2 2 1 1 2 2 2 2 2 3 3 4 4 5 5 5 3 3 4
3 3 2 2 2 3 4 7 5 2 3 3 1 1 1 1 4 4 2 1 2 2 1 2 2 2 1 1 1 1 1 2 2 2 2 2 3 4 4 4 3 3 3 2
2 1 1 1 1 4 4 3 1 3 3 1 1 0 1 1 1 1 2 2 2 2 2 2 2 1 1 1 1 1 1 2 1 1 1 1 2 2 2 2 2 2 3 2
1 4 4 4 4 5 1 1 2 1 1 2 1 0 2 2 1 1 2 2 2 2 2 2 2 1 1 0 1 0 2 1 1 0 1 1 2 2 2 2 2 2 2 2
2 1 3 1 2 2 1 1 2 1 2 2 1 1 2 3 2 2 2 2 2 2 1 1 2 1 1 1 1 2 2 1 2 1 2 2 2 2 1 1 2 2 3 3
2 1 1 0 2 3 4 3 2 2 2 3 2 1 2 3 2 2 2 2 2 1 1 1 2 1 1 1 1 2 2 1 1 2 2 2 2 2 2 1 2 3 4 5
1 2 3 3 4 2 4 4 2 2 2 2 3 3 2 2 2 1 1 1 1 1 1 1 1 1 1 1 1 2 2 1 2 2 2 2 1 1 2 2 1 1 2 4
Wind_Direction
268 104 231 236 219 212 232 253 268 272 274 273 232 219 210 188 166 175 171 165 164 171 169 151 151 146 142 143 143 144 140 145 143 146 143 138 142 140 126 120 124 126 124 121
352 249 233 232 240 235 253 268 277 284 287 255 222 227 197 162 175 179 174 173 171 157 149 147 148 149 151 151 149 148 148 148 153 156 152 145 141 140 141 132 116 127 129 130
220 244 243 229 251 261 264 245 251 259 299 332 75 314 270 209 164 158 168 170 167 165 165 162 153 153 153 154 155 156 158 156 155 143 127 116 97 86 84 96 123 135 133 132
243 250 254 254 252 233 257 252 243 252 299 277 183 249 273 234 205 178 185 176 178 171 167 167 160 157 160 164 157 153 157 157 154 147 144 146 146 151 168 166 163 146 127 135
254 242 237 248 250 233 236 249 240 236 219 301 307 178 275 253 236 223 205 187 178 174 172 172 167 165 165 164 157 153 151 151 151 152 153 152 146 148 139 135 133 135 130 137
251 255 227 234 254 240 234 344 345 25 77 281 253 183 267 232 212 202 194 172 165 166 168 169 161 159 162 162 155 151 150 155 156 155 154 155 151 147 140 144 151 153 148 145
302 295 286 273 304 307 59 78 16 344 351 253 261 163 246 251 204 179 167 164 158 160 158 146 146 158 165 164 161 159 157 159 161 159 160 159 158 156 159 163 165 162 158 176
264 285 284 290 219 229 228 147 165 208 231 268 322 215 257 277 183 158 156 154 151 155 155 152 152 157 167 168 163 162 165 164 164 161 167 164 157 159 164 166 164 170 179 191
202 261 284 280 258 183 209 212 182 159 212 254 261 248 301 25 75 117 135 135 142 144 137 137 142 145 155 167 169 168 169 168 171 172 171 166 161 160 163 163 161 169 176 180
180 255 283 299 0 341 174 178 92 121 176 245 257 227 218 213 171 153 142 137 137 129 118 120 135 139 146 170 173 169 170 175 172 170 170 165 168 168 165 161 166 176 184 182
139 190 302 344 282 280 0 30 95 140 166 172 238 259 226 198 176 167 166 159 152 138 127 125 133 145 139 144 169 170 166 168 170 172 172 164 171 171 169 175 180 181 184 187
111 126 269 273 269 233 140 169 134 149 250 179 184 260 313 156 169 159 153 151 143 135 135 145 149 137 128 138 169 175 172 173 178 176 172 170 175 170 175 185 186 179 183 191
97 96 14 336 343 2 40 29 103 139 134 171 184 254 348 54 83 129 142 151 135 123 116 117 128 135 143 153 160 176 181 178 179 174 170 169 179 182 187 192 189 182 183 188
100 110 160 205 243 286 316 320 338 110 150 218 213 224 303 10 92 126 119 117 123 127 130 129 137 152 158 157 163 164 178 175 173 173 171 179 191 193 191 188 186 188 187 191
85 113 192 236 267 311 315 305 310 206 193 199 225 211 224 215 203 165 140 127 121 119 126 131 141 167 173 164 166 163 164 170 175 177 181 193 195 188 180 183 188 188 190 196
81 129 68 314 315 350 331 321 313 316 247 194 144 256 221 144 102 123 149 150 146 144 132 117 107 132 221 199 184 170 171 172 171 177 187 189 185 183 182 185 186 187 193 198
114 121 100 279 305 0 322 318 322 335 316 177 190 212 169 91 114 152 169 157 152 144 141 133 127 204 253 224 191 180 179 171 169 179 184 187 182 186 191 190 187 195 200 199
146 129 139 254 12 252 248 332 19 43 19 35 120 147 143 138 156 123 129 134 129 119 112 90 37 341 296 244 215 184 164 162 163 175 182 184 182 187 188 186 198 210 205 199
137 136 121 118 197 265 304 341 344 322 349 2 112 143 147 129 69 12 37 120 142 146 141 119 79 49 353 329 198 149 146 141 154 182 195 194 189 195 189 193 204 205 198 202
61 85 112 134 179 237 277 311 315 76 326 330 54 137 163 99 97 252 267 116 108 104 102 109 90 66 52 359 103 120 136 137 182 211 210 198 190 192 197 200 206 203 193 202
29 33 87 160 206 259 297 320 352 103 252 299 6 56 144 169 205 216 187 133 143 129 118 117 98 80 73 359 81 131 146 198 219 209 203 206 200 198 197 196 198 193 187 188
143 126 168 128 156 263 307 9 27 238 261 314 25 12 143 161 175 170 146 137 133 120 116 115 102 58 344 41 71 107 229 239 222 178 192 211 212 211 198 190 194 182 170 174
156 182 174 172 207 243 264 193 258 233 319 305 297 197 137 128 116 144 147 133 144 152 152 140 142 156 323 342 120 205 253 233 178 182 240 225 212 214 192 188 195 182 166 171
326 65 103 103 280 290 323 336 333 333 309 299 252 187 148 143 145 140 140 141 169 173 166 152 132 124 308 291 263 258 257 210 172 200 231 223 198 209 213 198 192 181 181 182
291 41 68 352 301 342 337 331 321 353 4 357 337 164 156 147 150 152 157 177 193 200 191 153 155 182 245 262 272 287 266 196 200 222 225 224 209 198 195 201 213 203 203 195
296 152 151 221 240 212 270 291 317 33 24 21 39 51 67 103 127 127 149 173 163 160 157 163 192 206 254 273 287 298 281 202 201 231 235 222 215 202 187 180 297 308 231 216